Tracking 19908 objects as of 18-Oct-2019
HD Live streaming from Space Station
objects crossing your sky now

DIAMANT B-P4 DEB

Track DIAMANT B-P4 DEB now!
10-day predictions


NORAD ID: 7654
Int'l Code: 1975-010C
Perigee: 793.5 km
Apogee: 1,048.5 km
Inclination: 49.8 °
Period: 103.3 minutes
Semi major axis: 7291 km
RCS: 0.0394 m2 (small)
Launch date: February 6, 1975
Source: France (FR)
Launch site: FRENCH GUIANA (FRGUI)

Note: This is SATELLITE DEBRIS
aabbcc
Your satellite tracking list
Your tracking list is empty




NASA's NSSDC Master Catalog

Two Line Element Set (TLE):
1  7654U 75010C   19290.33986110 -.00000004 +00000-0 +94505-4 0  9999
2  7654 049.8445 272.0616 0174845 178.2532 181.9012 13.94231723270117
Source of the keplerian elements: AFSPC